Location: Paris
(48.6709°N, 2.3750°E)
Time: 21:09:04
(UTC+01:00)

ISS - Pass Details

Date: 02 November 2021
Orbit: 417 x 422 km, 51.6° (Epoch: 04 December)

Event Time Altitude Azimuth Distance (km) Brightness Sun altitude
Exits shadow 05:34:01 47° 16° (NNE) 561 -3.1 -20.9°
Drops below altitude 10° 05:37:05 10° 78° (ENE) 1,499 0.2 -20.4°
Enters shadow 06:30:58 -73° 280° (W) 12,662 3.7 -11.6°
Maximum altitude 07:10:50 89° 212° (SSW) 423 -3.7 -5.2°
